This demonstration page uses our WeatherBlox Daily Observations layout. Learn more.

Hourly Observations for December 30, 2017

Temp ( °F °C ) Dew Point ( °F °C ) Humidity (%) Winds ( mph kmh ) Pressure ( in mb ) Visibility ( mi km ) Precip ( " mm )
12:09 am 00:09 Cloudy 20 -6.7 17 -8.3 89 89 NW 5 7 30.24 1024 7 11.26538 0 0
12:53 am 00:53 Cloudy 20 -6.7 17 -8.3 89 89 NNW 3 6 30.2 1023 7 11.26538 0 0.0254
1:20 am 01:20 Cloudy with Light Snow 20 -6.7 17 -8.3 89 89 Calm 30.21 1023 4 6.43736 0 0.0254
1:53 am 01:53 Cloudy 20 -6.7 17 -8.3 89 89 Calm 30.19 1022 7 11.26538 0 0.0254
2:28 am 02:28 Cloudy 20 -6.7 17 -8.3 89 89 Calm 30.18 1022 7 11.26538 0 0
2:45 am 02:45 Cloudy 20 -6.7 17 -8.3 89 89 Calm 30.18 1022 7 11.26538 0 0
2:53 am 02:53 Cloudy 20 -6.7 17 -8.3 89 89 WSW 3 6 30.18 1022 7 11.26538 0 0
3:09 am 03:09 Cloudy 20 -6.7 18 -7.8 92 92 WSW 3 6 30.18 1022 7 11.26538 0 0
3:39 am 03:39 Cloudy 20 -6.7 17 -8.3 89 89 WNW 5 7 30.18 1022 8 12.87472 0 0
3:53 am 03:53 Cloudy 20 -6.7 17 -8.3 89 89 W 3 6 30.18 1022 8 12.87472 0 0
4:19 am 04:19 Cloudy 20 -6.7 17 -8.3 89 89 WNW 5 7 30.21 1023 7 11.26538 0 0
4:53 am 04:53 Cloudy 20 -6.7 16 -8.9 85 85 WNW 7 11 30.19 1022 8 12.87472 0 0
5:17 am 05:17 Cloudy 20 -6.7 17 -8.3 89 89 WNW 5 7 30.18 1022 7 11.26538 0 0
5:53 am 05:53 Cloudy 20 -6.7 16 -8.9 85 85 NW 8 13 30.19 1022 8 12.87472 0 0
6:26 am 06:26 Cloudy 20 -6.7 15 -9.4 81 81 NW 8 13 30.21 1023 8 12.87472 0 0
6:53 am 06:53 Cloudy 19 -7.2 15 -9.4 84 84 NW 10 17 30.21 1023 8 12.87472 0 0
7:04 am 07:04 Cloudy 19 -7.2 14 -10 81 81 WNW 12 19 30.21 1023 9 14.48406 0 0
7:19 am 07:19 Cloudy 19 -7.2 14 -10 81 81 NW 12 19 30.21 1023 9 14.48406 0 0
7:53 am 07:53 Cloudy 18 -7.8 13 -10.6 81 81 WNW 9 15 30.2 1023 9 14.48406 0 0
8:53 am 08:53 Cloudy 18 -7.8 12 -11.1 77 77 W 7 11 30.21 1023 10 16.0934 0 0
9:53 am 09:53 Cloudy 19 -7.2 12 -11.1 74 74 W 7 11 30.24 1024 10 16.0934 0 0
10:53 am 10:53 Cloudy 19 -7.2 11 -11.7 71 71 WNW 13 20 30.26 1025 9 14.48406 0 0
11:00 am 11:00 Mostly Cloudy 19 -7.2 11 -11.7 71 71 WNW 13 20 30.24 1024 10 16.0934 0 0
11:53 am 11:53 Mostly Cloudy 20 -6.7 11 -11.7 68 68 W 12 19 30.24 1024 10 16.0934 0 0
12:53 pm 12:53 Cloudy 19 -7.2 10 -12.2 68 68 NW 17 28 30.24 1024 10 16.0934 0 0
1:53 pm 13:53 Mostly Cloudy 19 -7.2 8 -13.3 62 62 NW 20 31 30.24 1024 10 16.0934 0 0
2:02 pm 14:02 Partly Cloudy 18 -7.8 8 -13.3 65 65 WNW 18 30 30.24 1024 10 16.0934 0 0
2:53 pm 14:53 Mostly Sunny 17 -8.3 7 -13.9 64 64 NW 17 28 30.27 1025 10 16.0934 0 0.0254
3:53 pm 15:53 Partly Cloudy 15 -9.4 5 -15 64 64 WNW 16 26 30.29 1026 10 16.0934 0 0
4:53 pm 16:53 Mostly Sunny 13 -10.6 3 -16.1 64 64 NW 14 22 30.33 1027 10 16.0934 0 0
5:53 pm 17:53 Clear 11 -11.7 1 -17.2 64 64 NW 12 19 30.36 1028 10 16.0934 0 0
6:53 pm 18:53 Clear 9 -12.8 1 -17.2 70 70 WNW 9 15 30.39 1029 10 16.0934 0 0
7:53 pm 19:53 Clear 8 -13.3 0 -17.8 69 69 WNW 8 13 30.41 1030 10 16.0934 0 0
8:53 pm 20:53 Clear 7 -13.9 -2 -18.9 66 66 WNW 9 15 30.44 1031 10 16.0934 0 0
9:53 pm 21:53 Clear 5 -15 -4 -20 66 66 WNW 8 13 30.46 1032 10 16.0934 0 0
10:53 pm 22:53 Clear 4 -15.6 -4 -20 69 69 WNW 5 7 30.45 1031 10 16.0934 0 0
11:53 pm 23:53 Clear 5 -15 -4 -20 66 66 Calm 30.45 1031 10 16.0934 0 0

Powered by AerisWeather